EN

Hourly Weather Almáskeresztúr

Today, 22 January, Friday

Time Temperature Precipitation Wind Pressure Humidity
00:00 +6°C° 0 mm 5 mps 742 mmHg 78%
01:00 +6°C° 0 mm 5 mps 742 mmHg 80%
02:00 +6°C° 0 mm 5 mps 741 mmHg 80%
03:00 +6°C° 0 mm 4 mps 741 mmHg 81%
04:00 +5°C° 0 mm 4 mps 740 mmHg 82%
05:00 +5°C° 0 mm 4 mps 740 mmHg 82%
06:00 +5°C° 0 mm 4 mps 740 mmHg 82%
07:00 +5°C° 0 mm 4 mps 739 mmHg 83%
08:00 +6°C° 0 mm 4 mps 739 mmHg 80%
09:00 +7°C° 0 mm 5 mps 739 mmHg 77%
10:00 +8°C° 0 mm 5 mps 739 mmHg 74%
11:00 +8°C° 0.1 mm 5 mps 738 mmHg 74%
12:00 +9°C° 0.1 mm 5 mps 738 mmHg 75%
13:00 +10°C° 0.1 mm 5 mps 738 mmHg 76%
14:00 +10°C° 0.1 mm 5 mps 737 mmHg 76%
15:00 +9°C° 0.1 mm 5 mps 737 mmHg 77%
16:00 +9°C° 0.1 mm 5 mps 737 mmHg 78%
17:00 +9°C° 0 mm 5 mps 736 mmHg 80%
18:00 +8°C° 0 mm 5 mps 736 mmHg 82%
19:00 +7°C° 0 mm 5 mps 736 mmHg 84%
20:00 +7°C° 0 mm 5 mps 735 mmHg 84%
21:00 +7°C° 0 mm 5 mps 735 mmHg 83%
22:00 +7°C° 0 mm 4 mps 735 mmHg 82%
23:00 +7°C° 0.2 mm 5 mps 734 mmHg 82%

Tomorrow, 23 January, Saturday

Time Temperature Precipitation Wind Pressure Humidity
00:00 +7°C° 0.2 mm 5 mps 734 mmHg 83%
01:00 +7°C° 0.2 mm 5 mps 733 mmHg 83%
02:00 +7°C° 0.1 mm 5 mps 733 mmHg 81%
03:00 +7°C° 0.1 mm 5 mps 733 mmHg 79%
04:00 +7°C° 0.1 mm 6 mps 732 mmHg 77%
05:00 +7°C° 0.2 mm 6 mps 732 mmHg 78%
06:00 +7°C° 0.2 mm 5 mps 732 mmHg 78%
07:00 +7°C° 0.2 mm 5 mps 732 mmHg 79%
08:00 +7°C° 0.2 mm 5 mps 732 mmHg 79%
09:00 +7°C° 0.2 mm 5 mps 732 mmHg 80%
10:00 +7°C° 0.2 mm 5 mps 732 mmHg 81%
11:00 +7°C° 1 mm 4 mps 731 mmHg 83%
12:00 +8°C° 1 mm 3 mps 731 mmHg 86%
13:00 +8°C° 1 mm 2 mps 731 mmHg 88%
14:00 +8°C° 0.2 mm 2 mps 731 mmHg 88%
15:00 +8°C° 0.2 mm 2 mps 731 mmHg 87%
16:00 +8°C° 0.2 mm 2 mps 731 mmHg 87%
17:00 +7°C° 0 mm 2 mps 731 mmHg 87%
18:00 +7°C° 0 mm 3 mps 731 mmHg 87%
19:00 +5°C° 0 mm 3 mps 731 mmHg 86%
20:00 +5°C° 0 mm 3 mps 731 mmHg 85%
21:00 +6°C° 0 mm 2 mps 731 mmHg 84%
22:00 +5°C° 0 mm 2 mps 731 mmHg 82%
23:00 +5°C° 0 mm 2 mps 731 mmHg 84%

Day after tomorrow, 24 January, Sunday

Time Temperature Precipitation Wind Pressure Humidity
00:00 +5°C° 0 mm 2 mps 731 mmHg 85%
01:00 +4°C° 0 mm 2 mps 731 mmHg 87%
02:00 +4°C° 0.1 mm 2 mps 731 mmHg 87%
03:00 +5°C° 0.1 mm 1 mps 730 mmHg 88%
04:00 +5°C° 0.1 mm 1 mps 730 mmHg 89%
05:00 +5°C° 0.1 mm 1 mps 731 mmHg 90%
06:00 +5°C° 0.1 mm 1 mps 731 mmHg 90%
07:00 +5°C° 0.1 mm 1 mps 731 mmHg 91%
08:00 +4°C° 0 mm 2 mps 732 mmHg 90%
09:00 +4°C° 0 mm 2 mps 732 mmHg 89%
10:00 +3°C° 0 mm 3 mps 733 mmHg 88%
11:00 +3°C° 0 mm 3 mps 733 mmHg 87%
12:00 +1°C° 0 mm 4 mps 733 mmHg 85%
13:00 +1°C° 0 mm 4 mps 733 mmHg 84%
14:00 +2°C° 0 mm 3 mps 734 mmHg 81%
15:00 +4°C° 0 mm 2 mps 734 mmHg 78%
16:00 +4°C° 0 mm 2 mps 734 mmHg 75%
17:00 +4°C° 0 mm 1 mps 734 mmHg 78%
18:00 +4°C° 0 mm 1 mps 735 mmHg 80%
19:00 +3°C° 0 mm 1 mps 735 mmHg 83%
20:00 +3°C° 0 mm 1 mps 735 mmHg 82%
21:00 +2°C° 0 mm 2 mps 734 mmHg 81%
22:00 +2°C° 0 mm 2 mps 734 mmHg 80%
23:00 +2°C° 0 mm 2 mps 734 mmHg 79%

25 January, Monday

Time Temperature Precipitation Wind Pressure Humidity
00:00 +1°C° 0 mm 3 mps 734 mmHg 78%
01:00 +1°C° 0 mm 3 mps 734 mmHg 76%
02:00 0°C° 0 mm 4 mps 734 mmHg 74%
03:00 -1°C° 0 mm 4 mps 734 mmHg 72%
04:00 -1°C° 0 mm 4 mps 733 mmHg 69%
05:00 -1°C° 0 mm 5 mps 734 mmHg 70%
06:00 -1°C° 0 mm 5 mps 734 mmHg 70%
07:00 -1°C° 0 mm 5 mps 734 mmHg 70%
08:00 -2°C° 0 mm 6 mps 735 mmHg 69%
09:00 -1°C° 0 mm 6 mps 735 mmHg 68%
10:00 -1°C° 0 mm 7 mps 736 mmHg 67%
11:00 -1°C° 0 mm 7 mps 736 mmHg 65%
12:00 0°C° 0 mm 7 mps 736 mmHg 63%
13:00 +1°C° 0 mm 8 mps 737 mmHg 61%
14:00 0°C° 0 mm 7 mps 737 mmHg 60%
15:00 +1°C° 0 mm 6 mps 738 mmHg 59%
16:00 +1°C° 0 mm 6 mps 738 mmHg 58%
17:00 0°C° 0 mm 5 mps 739 mmHg 61%
18:00 0°C° 0 mm 5 mps 740 mmHg 64%
19:00 -1°C° 0 mm 4 mps 740 mmHg 67%
20:00 -1°C° 0 mm 4 mps 741 mmHg 69%
21:00 -1°C° 0 mm 4 mps 741 mmHg 72%
22:00 -1°C° 0 mm 3 mps 742 mmHg 74%
23:00 -1°C° 0 mm 3 mps 742 mmHg 74%

26 January, Tuesday

Time Temperature Precipitation Wind Pressure Humidity
00:00 -1°C° 0 mm 3 mps 743 mmHg 75%
01:00 -1°C° 0 mm 2 mps 743 mmHg 76%
02:00 -2°C° 0 mm 2 mps 743 mmHg 77%
03:00 -2°C° 0 mm 2 mps 743 mmHg 79%
04:00 0°C° 0 mm 1 mps 743 mmHg 80%
05:00 0°C° 0 mm 1 mps 744 mmHg 80%
06:00 0°C° 0 mm 1 mps 744 mmHg 80%
07:00 0°C° 0 mm 1 mps 744 mmHg 80%
08:00 +1°C° 0 mm 1 mps 744 mmHg 76%
09:00 +1°C° 0 mm 2 mps 745 mmHg 72%
10:00 +2°C° 0 mm 2 mps 745 mmHg 67%
11:00 +3°C° 0 mm 2 mps 745 mmHg 64%
12:00 +4°C° 0 mm 2 mps 745 mmHg 60%
13:00 +5°C° 0 mm 2 mps 744 mmHg 57%
14:00 +4°C° 0 mm 2 mps 744 mmHg 61%
15:00 +3°C° 0 mm 2 mps 744 mmHg 66%
16:00 +4°C° 0 mm 1 mps 744 mmHg 70%
17:00 +2°C° 0 mm 2 mps 745 mmHg 72%
18:00 +2°C° 0 mm 2 mps 745 mmHg 73%
19:00 0°C° 0 mm 3 mps 746 mmHg 74%
20:00 -1°C° 0 mm 2 mps 746 mmHg 78%
21:00 -1°C° 0 mm 2 mps 747 mmHg 81%
22:00 -1°C° 0 mm 2 mps 747 mmHg 85%
23:00 -2°C° 0 mm 2 mps 747 mmHg 84%

27 January, Wednesday

Time Temperature Precipitation Wind Pressure Humidity
00:00 -2°C° 0 mm 2 mps 747 mmHg 84%
01:00 0°C° 0 mm 1 mps 747 mmHg 84%
02:00 0°C° 0 mm 1 mps 747 mmHg 84%
03:00 0°C° 0 mm 1 mps 747 mmHg 83%
04:00 0°C° 0 mm 1 mps 747 mmHg 83%
05:00 0°C° 0 mm 1 mps 746 mmHg 81%
06:00 0°C° 0 mm 1 mps 746 mmHg 80%
07:00 -2°C° 0 mm 2 mps 746 mmHg 79%
08:00 -1°C° 0 mm 2 mps 746 mmHg 74%
09:00 +1°C° 0 mm 2 mps 746 mmHg 70%
10:00 +2°C° 0 mm 2 mps 745 mmHg 65%
11:00 +2°C° 0 mm 3 mps 745 mmHg 61%
12:00 +3°C° 0 mm 3 mps 744 mmHg 57%
13:00 +4°C° 0 mm 4 mps 744 mmHg 53%
14:00 +3°C° 0 mm 3 mps 744 mmHg 58%
15:00 +3°C° 0 mm 3 mps 744 mmHg 63%
16:00 +4°C° 0 mm 2 mps 744 mmHg 67%
17:00 +3°C° 0 mm 2 mps 744 mmHg 71%
18:00 +2°C° 0 mm 2 mps 744 mmHg 74%
19:00 +2°C° 0 mm 2 mps 744 mmHg 78%
20:00 +2°C° 0 mm 2 mps 745 mmHg 78%
21:00 +2°C° 0 mm 2 mps 745 mmHg 78%
22:00 +2°C° 0 mm 2 mps 745 mmHg 78%
23:00 +2°C° 0 mm 2 mps 745 mmHg 78%
Show more